STARLINK-32303, 61912

Orbit data source: Space-Track

STARLINK-32303, 61912 is a payload satellite owned by SpaceX/Seattle (US) in LEO that was launched on Mon, 11 Nov 2024 UTC via an FALCON 9 launch vehicle from the Air Force Eastern Test Range (AFETR). Payload-class satellites include a variety of spacecraft equipped with specific instruments for various scientific and technological missions. These include communications satellites like Starlink; space stations such as the ISS; scientific satellites like the Hubble; Earth observation satellites from companies like Planet Labs, Umbra, and HawkEye 360; GPS; miniature CubeSats for education and research; and military/defense satellites.

Loading next visibility...
Identifier
61912, 2024-207A
Orbit
LEO
Country
Flag of USUS
Related business
Manufacturer
SpaceX/Seattle
Mission
Operational Commercial Communications
Bus & Motor
STARLINK V2M, Unknown motor
Mass
730 kg wet, ~700 kg dry
Launch date (UTC)
2024-11-11 (1 year ago)
Launch vehicle
FALCON 9
Launch site
Air Force Eastern Test Range (AFETR)
Object type
Payload
Rocket body
Debris
Shape & HBR
Box + 2 Pan, 17.7 m
Radar Cross Section
33.884 m², Large (>1 m²)

Expand to show TLE details & history
Last TLE update: 21 hours ago

TLE from 21 hours ago
0 STARLINK-32303
1 61912U 24207A   26072.81564776  .00042151  00000-0  15317-2 0  9997
2 61912  42.9970 258.3917 0000920 269.2199  90.8547 15.27598370 75941
Epoch: 2026-03-13T19:34Z
TLE epoch observation values (Epoch: 2026-03-13T19:34:31.966Z)
Latitude
-0.00003°
Longitude
153.31271°
Altitude
482.779 km
Speed
7.626 km/s
True Right ascension
17h 13m 34s
True Declination
0° 00' 00"
Sunlit
Object was in daylight at epoch
Visualization orbit readout
Latitude
Unknown
Longitude
Unknown
Altitude
Unknown
Speed
Unknown
Apparent Right ascension
Unknown
Apparent Declination
Unknown
Sunlit
N/A
Visualization observer readout
Local Sidereal Time
20:51:31
Azimuth
Unknown
Elevation
Unknown
Doppler factor
Unknown
Orbital elements
Apogee altitude
485.571 km
Perigee altitude
484.308 km
Semi-major axis
6,863.077 km
Eccentricity
0.00009
Inclination
42.997°
RAAN
258.3917°
Arg. of periapsis
269.2199°
True anomaly
90.86524°
Mean anomaly
90.8547°
Eccentric anomaly
90.85997°
Mean motion
3.81738 °/min
Orbital period
94.31 mins
BSTAR
0.0015317
Loading maneuver chart data...
Computing Atmospheric mass density...
Loading historical data...
Loading historical data...
Loading historical data...
Loading historical data...
Loading historical data...
Loading historical data...
Loading historical data...

Documentation

Showing up to 5 results
|